Time,TemperatureF,DewpointF,PressureIn,WindDirection,WindDirectionDegrees,WindSpeedMPH,WindSpeedGustMPH,Humidity,HourlyPrecipIn,Conditions,Clouds,dailyrainin,SolarRadiationWatts/m^2,SoftwareType,DateUTC
2013-11-02 00:03:00,58.0,21.0,-100.00,SSW,197,0.0,4.0,24,0.00,,,0.00,0.000000,,2013-11-02 07:03:00,
2013-11-02 00:12:00,58.0,21.0,-100.00,SSW,197,0.0,4.0,24,0.00,,,0.00,0.000000,,2013-11-02 07:12:00,
2013-11-02 00:21:00,58.0,21.0,-100.00,SSW,197,0.0,4.0,24,0.00,,,0.00,0.000000,,2013-11-02 07:21:00,
2013-11-02 00:52:00,58.0,21.0,-100.00,South,191,0.0,3.0,24,0.00,,,0.00,0.000000,,2013-11-02 07:52:00,
2013-11-02 01:02:00,58.0,21.0,-100.00,South,191,0.0,3.0,24,0.00,,,0.00,0.000000,,2013-11-02 08:02:00,
2013-11-02 01:12:00,58.0,21.0,-100.00,South,191,0.0,3.0,24,0.00,,,0.00,0.000000,,2013-11-02 08:12:00,
2013-11-02 01:21:00,58.0,21.0,-100.00,South,191,0.0,3.0,24,0.00,,,0.00,0.000000,,2013-11-02 08:21:00,
2013-11-02 01:52:00,58.0,20.0,-100.00,SSE,162,1.0,4.0,23,-99.99,,,0.00,0.000000,,2013-11-02 08:52:00,
2013-11-02 02:02:00,58.0,20.0,-100.00,SSE,162,1.0,4.0,23,-99.99,,,0.00,0.000000,,2013-11-02 09:02:00,
2013-11-02 02:11:00,58.0,20.0,-100.00,SSE,162,1.0,4.0,23,-99.99,,,0.00,0.000000,,2013-11-02 09:11:00,
2013-11-02 02:21:00,58.0,20.0,-100.00,SSE,162,1.0,4.0,23,-99.99,,,0.00,0.000000,,2013-11-02 09:21:00,
2013-11-02 02:53:00,56.0,20.0,-100.00,SE,127,0.0,4.0,24,0.00,,,0.00,0.000000,,2013-11-02 09:53:00,
2013-11-02 03:03:00,56.0,20.0,-100.00,SE,127,0.0,4.0,24,0.00,,,0.00,0.000000,,2013-11-02 10:03:00,
2013-11-02 03:12:00,56.0,20.0,-100.00,SE,127,0.0,4.0,24,0.00,,,0.00,0.000000,,2013-11-02 10:12:00,
2013-11-02 03:23:00,56.0,20.0,-100.00,SE,127,0.0,4.0,24,0.00,,,0.00,0.000000,,2013-11-02 10:23:00,
2013-11-02 03:53:00,56.0,21.0,-100.00,ENE,65,0.0,3.0,25,0.00,,,-99.99,0.000000,,2013-11-02 10:53:00,
2013-11-02 04:02:00,56.0,21.0,-100.00,ENE,65,0.0,3.0,25,0.00,,,-99.99,0.000000,,2013-11-02 11:02:00,
2013-11-02 04:12:00,56.0,21.0,-100.00,ENE,65,0.0,3.0,25,0.00,,,-99.99,0.000000,,2013-11-02 11:12:00,
2013-11-02 04:22:00,56.0,21.0,-100.00,ENE,65,0.0,3.0,25,0.00,,,-99.99,0.000000,,2013-11-02 11:22:00,
2013-11-02 04:52:00,55.0,17.0,-100.00,ENE,65,0.0,3.0,22,0.00,,,0.00,0.000000,,2013-11-02 11:52:00,
2013-11-02 05:02:00,55.0,17.0,-100.00,ENE,65,0.0,3.0,22,0.00,,,0.00,0.000000,,2013-11-02 12:02:00,
2013-11-02 05:52:00,54.0,16.0,-100.00,ESE,114,0.0,4.0,22,-99.99,,,0.00,0.000000,,2013-11-02 12:52:00,
2013-11-02 06:02:00,54.0,16.0,-100.00,ESE,114,0.0,4.0,22,-99.99,,,0.00,0.000000,,2013-11-02 13:02:00,
2013-11-02 06:11:00,54.0,16.0,-100.00,ESE,114,0.0,4.0,22,-99.99,,,0.00,0.000000,,2013-11-02 13:11:00,
2013-11-02 06:21:00,54.0,16.0,-100.00,ESE,114,0.0,4.0,22,-99.99,,,0.00,0.000000,,2013-11-02 13:21:00,
2013-11-02 06:52:00,53.0,16.0,-100.00,ENE,62,0.0,4.0,23,0.00,,,0.00,0.000000,,2013-11-02 13:52:00,
2013-11-02 07:01:00,53.0,16.0,-100.00,ENE,62,0.0,4.0,23,0.00,,,0.00,0.000000,,2013-11-02 14:01:00,
2013-11-02 07:11:00,53.0,16.0,-100.00,ENE,62,0.0,4.0,23,0.00,,,0.00,0.000000,,2013-11-02 14:11:00,
2013-11-02 07:21:00,53.0,16.0,-100.00,ENE,62,0.0,4.0,23,0.00,,,0.00,0.000000,,2013-11-02 14:21:00,
2013-11-02 07:52:00,53.0,16.0,-100.00,NNE,20,5.0,7.0,23,0.00,,,0.00,1.000000,,2013-11-02 14:52:00,
2013-11-02 08:02:00,53.0,16.0,-100.00,NNE,20,5.0,7.0,23,0.00,,,0.00,1.000000,,2013-11-02 15:02:00,
2013-11-02 08:11:00,53.0,16.0,-100.00,NNE,20,5.0,7.0,23,0.00,,,0.00,1.000000,,2013-11-02 15:11:00,
2013-11-02 08:22:00,53.0,16.0,-100.00,NNE,20,5.0,7.0,23,0.00,,,0.00,1.000000,,2013-11-02 15:22:00,
2013-11-02 08:53:00,58.0,19.0,-100.00,NNE,29,0.0,9.0,22,0.00,,,0.00,116.000000,,2013-11-02 15:53:00,
2013-11-02 09:03:00,58.0,19.0,-100.00,NNE,29,0.0,9.0,22,0.00,,,0.00,116.000000,,2013-11-02 16:03:00,
2013-11-02 09:13:00,58.0,19.0,-100.00,NNE,29,0.0,9.0,22,0.00,,,0.00,116.000000,,2013-11-02 16:13:00,
2013-11-02 09:23:00,58.0,19.0,-100.00,NNE,29,0.0,9.0,22,0.00,,,0.00,116.000000,,2013-11-02 16:23:00,
2013-11-02 10:12:00,57.0,20.0,-100.00,NNE,16,5.0,7.0,23,0.00,,,0.00,367.000000,,2013-11-02 17:12:00,
2013-11-02 10:22:00,57.0,20.0,-100.00,NNE,16,5.0,7.0,23,0.00,,,0.00,367.000000,,2013-11-02 17:22:00,
2013-11-02 10:53:00,60.0,20.0,-100.00,NE,51,3.0,8.0,21,0.00,,,0.00,585.000000,,2013-11-02 17:53:00,
2013-11-02 11:02:00,60.0,20.0,-100.00,NE,51,3.0,8.0,21,0.00,,,0.00,585.000000,,2013-11-02 18:02:00,
2013-11-02 11:12:00,60.0,20.0,-100.00,NE,51,3.0,8.0,21,0.00,,,0.00,585.000000,,2013-11-02 18:12:00,
2013-11-02 11:21:00,60.0,20.0,-100.00,NE,51,3.0,8.0,21,0.00,,,0.00,585.000000,,2013-11-02 18:21:00,
2013-11-02 11:52:00,66.0,21.0,-100.00,SE,137,2.0,8.0,18,0.00,,,0.00,750.000000,,2013-11-02 18:52:00,
2013-11-02 12:01:00,66.0,21.0,-100.00,SE,137,2.0,8.0,18,0.00,,,0.00,750.000000,,2013-11-02 19:01:00,
2013-11-02 12:11:00,66.0,21.0,-100.00,SE,137,2.0,8.0,18,0.00,,,0.00,750.000000,,2013-11-02 19:11:00,
2013-11-02 12:21:00,66.0,21.0,-100.00,SE,137,2.0,8.0,18,0.00,,,0.00,750.000000,,2013-11-02 19:21:00,
2013-11-02 12:52:00,64.0,21.0,-100.00,SSE,166,10.0,16.0,19,0.00,,,0.00,844.000000,,2013-11-02 19:52:00,
2013-11-02 13:02:00,64.0,21.0,-100.00,SSE,166,10.0,16.0,19,0.00,,,0.00,844.000000,,2013-11-02 20:02:00,
2013-11-02 13:12:00,64.0,21.0,-100.00,SSE,166,10.0,16.0,19,0.00,,,0.00,844.000000,,2013-11-02 20:12:00,
2013-11-02 13:21:00,64.0,21.0,-100.00,SSE,166,10.0,16.0,19,0.00,,,0.00,844.000000,,2013-11-02 20:21:00,
2013-11-02 13:53:00,68.0,22.0,-100.00,South,176,6.0,17.0,17,0.00,,,0.00,859.000000,,2013-11-02 20:53:00,
2013-11-02 14:02:00,68.0,22.0,-100.00,South,176,6.0,17.0,17,0.00,,,0.00,859.000000,,2013-11-02 21:02:00,
2013-11-02 14:12:00,68.0,22.0,-100.00,South,176,6.0,17.0,17,0.00,,,0.00,859.000000,,2013-11-02 21:12:00,
2013-11-02 14:21:00,68.0,22.0,-100.00,South,176,6.0,17.0,17,0.00,,,0.00,859.000000,,2013-11-02 21:21:00,
2013-11-02 14:54:00,67.0,21.0,-100.00,South,169,10.0,18.0,17,0.00,,,0.00,796.000000,,2013-11-02 21:54:00,
2013-11-02 15:03:00,67.0,21.0,-100.00,South,169,10.0,18.0,17,0.00,,,0.00,796.000000,,2013-11-02 22:03:00,
2013-11-02 15:13:00,67.0,21.0,-100.00,South,169,10.0,18.0,17,0.00,,,0.00,796.000000,,2013-11-02 22:13:00,
2013-11-02 15:24:00,67.0,21.0,-100.00,South,169,10.0,18.0,17,0.00,,,0.00,796.000000,,2013-11-02 22:24:00,
2013-11-02 15:54:00,70.0,22.0,-100.00,South,172,7.0,16.0,16,0.00,,,0.00,663.000000,,2013-11-02 22:54:00,
2013-11-02 16:02:00,70.0,22.0,-100.00,South,172,7.0,16.0,16,0.00,,,0.00,663.000000,,2013-11-02 23:02:00,
2013-11-02 16:12:00,70.0,22.0,-100.00,South,172,7.0,16.0,16,0.00,,,0.00,663.000000,,2013-11-02 23:12:00,
2013-11-02 16:21:00,70.0,22.0,-100.00,South,172,7.0,16.0,16,0.00,,,0.00,663.000000,,2013-11-02 23:21:00,
2013-11-02 16:52:00,69.0,19.0,-100.00,South,184,10.0,17.0,15,0.00,,,0.00,448.000000,,2013-11-02 23:52:00,
2013-11-02 17:01:00,69.0,19.0,-100.00,South,184,10.0,17.0,15,0.00,,,0.00,448.000000,,2013-11-03 00:01:00,
2013-11-02 17:11:00,69.0,19.0,-100.00,South,184,10.0,17.0,15,0.00,,,0.00,448.000000,,2013-11-03 00:11:00,
2013-11-02 17:21:00,69.0,19.0,-100.00,South,184,10.0,17.0,15,0.00,,,0.00,448.000000,,2013-11-03 00:21:00,
2013-11-02 17:52:00,64.0,20.0,-100.00,SSW,192,5.0,12.0,18,0.00,,,0.00,155.000000,,2013-11-03 00:52:00,
2013-11-02 18:02:00,64.0,20.0,-100.00,SSW,192,5.0,12.0,18,0.00,,,0.00,155.000000,,2013-11-03 01:02:00,
2013-11-02 18:11:00,64.0,20.0,-100.00,SSW,192,5.0,12.0,18,0.00,,,0.00,155.000000,,2013-11-03 01:11:00,
2013-11-02 18:21:00,64.0,20.0,-100.00,SSW,192,5.0,12.0,18,0.00,,,0.00,155.000000,,2013-11-03 01:21:00,
2013-11-02 18:52:00,61.0,21.0,-100.00,SSW,213,0.0,8.0,21,0.00,,,0.00,6.000000,,2013-11-03 01:52:00,
2013-11-02 19:02:00,61.0,21.0,-100.00,SSW,213,0.0,8.0,21,0.00,,,0.00,6.000000,,2013-11-03 02:02:00,
2013-11-02 19:11:00,61.0,21.0,-100.00,SSW,213,0.0,8.0,21,0.00,,,0.00,6.000000,,2013-11-03 02:11:00,
2013-11-02 19:21:00,61.0,21.0,-100.00,SSW,213,0.0,8.0,21,0.00,,,0.00,6.000000,,2013-11-03 02:21:00,
2013-11-02 19:52:00,60.0,21.0,-100.00,NW,322,8.0,10.0,22,0.00,,,0.00,0.000000,,2013-11-03 02:52:00,
2013-11-02 20:02:00,60.0,21.0,-100.00,NW,322,8.0,10.0,22,0.00,,,0.00,0.000000,,2013-11-03 03:02:00,
2013-11-02 20:11:00,60.0,21.0,-100.00,NW,322,8.0,10.0,22,0.00,,,0.00,0.000000,,2013-11-03 03:11:00,
2013-11-02 20:21:00,60.0,21.0,-100.00,NW,322,8.0,10.0,22,0.00,,,0.00,0.000000,,2013-11-03 03:21:00,
2013-11-02 20:54:00,59.0,21.0,-100.00,NNW,334,9.0,16.0,23,0.00,,,0.00,0.000000,,2013-11-03 03:54:00,
2013-11-02 21:02:00,-999.0,-99.9,-100.00,NNW,334,9.0,16.0,-999,-99.99,,,-99.99,0.000000,,2013-11-03 04:02:00,
2013-11-02 21:13:00,59.0,21.0,-100.00,NNW,334,9.0,16.0,23,0.00,,,0.00,0.000000,,2013-11-03 04:13:00,
2013-11-02 21:23:00,59.0,21.0,-100.00,NNW,334,9.0,16.0,23,0.00,,,0.00,0.000000,,2013-11-03 04:23:00,
2013-11-02 21:52:00,58.0,20.0,-100.00,NNW,337,5.0,9.0,23,0.00,,,0.00,0.000000,,2013-11-03 04:52:00,
2013-11-02 22:03:00,58.0,20.0,-100.00,NNW,337,5.0,9.0,23,0.00,,,0.00,0.000000,,2013-11-03 05:03:00,
2013-11-02 22:13:00,58.0,20.0,-100.00,NNW,337,5.0,9.0,23,0.00,,,0.00,0.000000,,2013-11-03 05:13:00,
2013-11-02 22:22:00,58.0,20.0,-100.00,NNW,337,5.0,9.0,23,0.00,,,0.00,0.000000,,2013-11-03 05:22:00,
2013-11-02 22:53:00,60.0,21.0,-100.00,NNE,28,8.0,11.0,22,0.00,,,0.00,0.000000,,2013-11-03 05:53:00,
2013-11-02 23:03:00,60.0,21.0,-100.00,NNE,28,8.0,11.0,22,0.00,,,0.00,0.000000,,2013-11-03 06:03:00,
2013-11-02 23:12:00,60.0,21.0,-100.00,NNE,28,8.0,11.0,22,0.00,,,0.00,0.000000,,2013-11-03 06:12:00,
2013-11-02 23:22:00,60.0,21.0,-100.00,NNE,28,8.0,11.0,22,0.00,,,0.00,0.000000,,2013-11-03 06:22:00,
2013-11-02 23:53:00,58.0,20.0,-100.00,South,169,2.0,16.0,23,0.00,,,0.00,0.000000,,2013-11-03 06:53:00,